SL-14 DEB, 45267

Orbit data source: Space-Track

SL-14 DEB, 45267 is space debris in LEO originally from a launch on Thu, 15 Aug 1991 UTC launched from the Plesetsk Missile And Space Complex (PKMTR). Debris objects in space refer to the collection of defunct objects orbiting the Earth. Examples of debris include non-operational satellites, rocket bodies, and fragments generated from explosions, collisions, or faulty payload assembly.

Loading next visibility...
Identifier
45267, 1991-056D
Orbit
LEO
Country
Flag of CISCIS
Related business
Manufacturer
Unknown
Mission
Spacecraft
Bus & Motor
Unknown
Mass
Unknown
Launch date (UTC)
1991-08-15 (35 years ago)
Launch vehicle
Unknown
Launch site
Plesetsk Missile And Space Complex (PKMTR)
Object type
Payload
Rocket body
Debris
Shape & HBR
Unknown shape, 0.4 m
Radar Cross Section
Medium (>0.1 m² and <1 m²)

Expand to show TLE details & history
Last TLE update: 10 hours ago

TLE from 10 hours ago
0 SL-14 DEB
1 45267U 91056D   26257.48516349 -.00000399  00000-0 -11149-2 0  9998
2 45267  82.5624  87.6413 0016134  47.5260 312.7222 13.14143358315956
Epoch: 2026-09-14T11:38Z
TLE epoch observation values (Epoch: 2026-09-14T11:38:38.125Z)
Latitude
0.00004°
Longitude
-80.48234°
Altitude
1,201.683 km
Speed
7.257 km/s
True Right ascension
05h 50m 33s
True Declination
0° 00' 00"
Sunlit
Object was in daylight at epoch
Visualization orbit readout
Latitude
Unknown
Longitude
Unknown
Altitude
Unknown
Speed
Unknown
Apparent Right ascension
Unknown
Apparent Declination
Unknown
Sunlit
N/A
Visualization observer readout
Local Sidereal Time
14:26:04
Azimuth
Unknown
Elevation
Unknown
Doppler factor
Unknown
Orbital elements
Apogee altitude
1,216.655 km
Perigee altitude
1,192.188 km
Semi-major axis
7,582.558 km
Eccentricity
0.00161
Inclination
82.5624°
RAAN
87.6413°
Arg. of periapsis
47.526°
True anomaly
312.58619°
Mean anomaly
312.7222°
Eccentric anomaly
312.65421°
Mean motion
3.28715 °/min
Orbital period
109.52 mins
BSTAR
-0.0011149
Loading maneuver chart data...
Computing Atmospheric mass density...
Loading historical data...
Loading historical data...
Loading historical data...
Loading historical data...
Loading historical data...
Loading historical data...
Loading historical data...

Documentation

Showing up to 5 results
|